CAPE
nan nan nan nan nan nan nan nan nan nan nan nan nan nan nan nan nan nan nan nan nan nan nan nan nan nan nan 13 37 37 57 65 77 77 78 71 66 66 69 68 68 68 71 77 77 82 83 87 87 92 99 104 116 116 128 143 143 149 150 151 151 140 130 117 117 112 118 133 163 163 203 234 286 286 338 386 418 418 413 381 381 363 308 302 302 296
nan nan nan nan nan nan nan nan nan nan nan nan nan nan nan nan nan nan nan nan nan nan nan nan nan nan nan nan 21 21 37 51 64 64 71 69 65 65 66 63 63 68 66 71 71 78 84 89 89 92 97 104 109 109 114 130 130 140 144 145 145 145 136 124 124 119 122 136 161 161 209 249 295 295 336 390 410 410 379 364 364 328 288 275 275 279
nan nan nan nan nan nan nan nan nan nan nan nan nan nan nan nan nan nan nan nan nan nan nan nan nan nan nan nan 15 15 27 44 54 54 62 63 61 61 60 57 57 60 62 65 65 69 75 83 83 92 100 105 107 107 111 122 122 124 129 134 134 136 135 126 126 117 120 134 157 157 195 240 285 285 313 382 379 379 337 305 305 298 293 290 290 276
nan nan nan nan nan nan nan nan nan nan nan nan nan nan nan nan nan nan nan nan nan nan nan nan nan nan nan nan nan nan 19 32 50 50 52 58 61 61 59 54 54 58 59 62 62 65 65 72 72 85 93 108 112 112 112 119 119 118 123 128 128 134 130 126 126 119 115 126 140 140 159 192 227 227 268 302 306 306 288 286 286 320 331 316 316 319
nan nan nan nan nan nan nan nan nan nan nan nan nan nan nan nan nan nan nan nan nan nan nan nan nan nan nan nan nan nan 9 33 46 46 54 60 64 64 65 68 68 63 65 65 65 68 65 65 65 69 82 98 108 108 114 121 121 121 120 124 124 132 131 133 133 128 118 118 127 127 132 143 166 166 209 234 263 263 263 272 272 313 340 338 338 326
nan nan nan nan nan nan nan nan nan nan nan nan nan nan nan nan nan nan nan nan nan nan nan nan nan nan nan nan nan nan 6 27 46 46 55 61 66 66 72 78 78 75 76 75 75 71 72 65 65 67 73 84 95 95 108 115 115 121 119 128 128 136 136 135 135 134 126 122 120 120 121 121 131 131 161 199 214 214 207 210 210 286 313 340 340 333
nan nan nan nan nan nan nan nan nan nan nan nan nan nan nan nan nan nan nan nan nan nan nan nan nan nan nan nan nan nan 4 18 40 40 45 59 68 68 73 81 81 85 83 82 82 80 72 66 66 63 66 73 80 80 89 104 104 112 115 125 125 132 137 134 134 134 128 125 120 120 116 114 121 121 137 168 175 175 164 189 189 248 298 314 314 311
nan nan nan nan nan nan nan nan nan nan nan nan nan nan nan nan nan nan nan nan nan nan nan nan nan nan nan nan nan nan nan nan nan nan nan nan 3 3 10 24 24 35 42 44 44 45 43 41 41 43 43 48 56 56 65 75 75 84 93 102 102 111 121 130 130 128 126 127 125 125 113 107 107 107 112 116 127 127 146 163 163 176 222 256 256 269
nan nan nan nan nan nan nan nan nan nan nan nan nan nan nan nan nan nan nan nan nan nan nan nan nan nan nan nan nan nan nan nan nan nan nan nan nan nan nan 4 4 17 25 28 28 27 31 30 30 32 35 40 47 47 56 62 62 71 78 86 86 97 112 126 126 129 129 124 124 124 113 108 111 111 114 120 128 128 125 133 133 143 166 202 202 247
nan nan nan nan nan nan nan nan nan nan nan nan nan nan nan nan nan nan nan nan nan nan nan nan nan nan nan nan nan nan nan nan 6 6 15 3 9 9 2 5 5 4 23 27 27 25 26 27 27 28 32 37 43 43 45 51 51 57 62 69 69 79 95 114 114 126 126 132 125 125 115 112 112 112 119 125 127 127 122 125 125 123 140 164 164 207
nan nan nan nan nan nan nan nan nan nan nan nan nan nan nan nan nan nan nan nan nan nan nan nan nan nan nan nan nan nan nan nan nan nan nan nan 4 4 10 7 7 14 21 22 22 22 19 19 19 23 25 31 33 33 34 36 36 42 50 57 57 65 79 101 101 114 123 128 128 128 119 115 122 122 127 133 133 133 133 134 134 133 141 151 151 178
nan nan nan nan nan nan nan nan nan nan nan nan nan nan nan nan nan nan nan nan nan nan nan nan nan nan nan nan nan nan nan nan nan nan nan nan nan nan nan nan nan nan nan nan nan 0 4 7 7 8 10 10 17 17 19 20 20 31 40 51 51 58 69 86 86 102 115 124 129 129 125 129 135 135 141 144 142 142 144 145 145 147 149 151 151 171
nan nan nan nan nan nan nan nan nan nan nan nan nan nan nan nan nan nan nan nan nan nan nan nan nan nan nan nan nan nan nan nan nan nan nan nan nan nan nan nan nan nan nan nan nan nan nan nan nan 0 3 3 7 7 10 12 12 21 33 44 44 52 64 73 73 88 104 118 123 123 130 134 141 141 158 160 152 152 147 156 156 149 161 164 164 174
nan nan nan nan nan nan nan nan nan nan nan nan nan nan nan nan nan nan nan nan nan nan nan nan nan nan nan nan nan nan nan nan nan nan nan nan nan nan nan nan nan nan nan nan nan nan nan nan nan nan nan nan 0 0 1 4 4 10 22 35 35 47 57 66 66 79 95 109 125 125 131 135 141 141 162 168 166 166 156 156 156 159 162 168 168 186
nan nan nan nan nan nan nan nan nan nan nan nan nan nan nan nan nan nan nan nan nan nan nan nan nan nan nan nan nan nan nan nan nan nan nan nan nan nan nan nan nan nan nan nan nan nan nan nan nan nan nan nan nan nan nan nan nan 7 14 26 26 40 52 60 60 72 83 105 120 120 132 135 140 140 147 168 165 165 156 160 160 161 165 168 168 179
nan nan nan nan nan nan nan nan nan nan nan nan nan nan nan nan nan nan nan nan nan nan nan nan nan nan nan nan nan nan nan nan nan nan nan nan nan nan nan nan nan nan nan nan nan nan nan nan nan nan nan nan nan nan 0 2 2 8 14 25 25 35 45 57 57 68 77 96 110 110 126 127 128 128 142 153 164 164 160 157 157 169 165 162 162 163
nan nan nan nan nan nan nan nan nan nan nan nan nan nan nan nan nan nan nan nan nan nan nan nan nan nan nan nan nan nan nan nan nan nan nan nan nan nan nan nan nan nan nan nan nan nan nan nan nan nan nan nan nan nan 1 4 4 9 14 25 25 34 43 52 52 62 76 89 106 106 116 122 124 124 134 145 156 156 161 166 166 170 170 164 164 158
nan nan nan nan nan nan nan nan nan nan nan nan nan nan nan nan nan nan nan nan nan nan nan nan nan nan nan nan nan nan nan nan nan nan nan nan nan nan nan nan nan nan nan nan nan nan nan nan nan nan nan nan 1 1 5 10 10 13 18 29 29 35 43 51 51 60 73 85 99 99 108 114 125 125 130 141 150 150 159 173 173 184 174 156 156 157
nan nan nan nan nan nan nan nan nan nan nan nan nan nan nan nan nan nan nan nan nan nan nan nan nan nan nan nan nan nan nan nan nan nan nan nan nan nan nan nan nan nan nan nan nan nan nan nan nan nan nan 2 7 7 13 15 15 21 24 33 33 42 44 49 49 57 71 84 96 96 110 115 119 119 132 134 141 141 150 169 169 186 175 156 156 156
nan nan nan nan nan nan nan nan nan nan nan nan nan nan nan nan nan nan nan nan nan nan nan nan nan nan nan nan nan nan nan nan nan nan nan nan nan nan nan nan nan nan nan nan nan nan nan nan nan nan nan 1 9 9 14 20 20 25 32 39 39 44 47 47 47 53 63 78 88 88 101 113 122 122 128 125 122 122 128 149 149 161 168 152 152 153
nan nan nan nan nan nan nan nan nan nan nan nan nan nan nan nan nan nan nan nan nan nan nan nan nan nan nan nan nan nan nan nan nan nan nan nan nan nan nan nan nan nan nan nan nan nan nan nan nan nan nan 1 10 10 16 22 22 27 37 41 41 45 48 48 48 51 58 65 78 78 94 105 120 120 125 111 101 101 105 127 127 155 157 150 150 151
nan nan nan nan nan nan nan nan nan nan nan nan nan nan nan nan nan nan nan nan nan nan nan nan nan nan nan nan nan nan nan nan nan nan nan nan nan nan nan nan nan nan nan nan nan nan nan nan nan nan nan 1 8 8 16 22 22 28 40 45 45 45 48 46 46 48 53 58 69 69 81 91 108 108 109 101 78 78 83 103 103 127 151 144 144 143
nan nan nan nan nan nan nan nan nan nan nan nan nan nan nan nan nan nan nan nan nan nan nan nan nan nan nan nan nan nan nan nan nan nan nan nan nan nan nan nan nan nan nan nan nan nan nan nan nan nan nan 2 8 8 15 22 22 30 39 45 45 48 48 48 48 49 51 56 65 65 72 82 93 93 96 89 77 77 70 84 84 109 135 144 144 150
nan nan nan nan nan nan nan nan nan nan nan nan nan nan nan nan nan nan nan nan nan nan nan nan nan nan nan nan nan nan nan nan nan nan nan nan nan nan nan nan nan nan nan nan nan nan nan nan nan nan nan nan 4 4 11 17 17 26 34 42 42 47 49 50 50 49 54 56 61 61 68 75 85 85 89 89 80 80 74 77 77 99 130 138 138 161
nan nan nan nan nan nan nan nan nan nan nan nan nan nan nan nan nan nan nan nan nan nan nan nan nan nan nan nan nan nan nan nan nan nan nan nan nan nan nan nan nan nan nan nan nan nan nan nan nan nan nan nan 1 1 6 13 13 17 28 37 37 45 46 47 47 50 56 60 62 62 67 70 77 77 81 81 83 83 72 66 66 81 102 127 127 153
nan nan nan nan nan 3 13 18 20 20 4 nan nan nan nan nan nan nan nan nan nan nan nan nan nan nan nan nan nan nan nan nan nan nan nan nan nan nan nan nan nan nan nan nan nan nan nan nan nan nan nan nan nan nan 2 7 7 12 17 26 26 35 39 44 44 49 55 58 63 63 64 67 75 75 73 76 82 82 78 61 61 58 75 111 111 133
90 86 92 92 92 91 84 93 96 96 110 50 nan nan nan nan nan nan nan nan nan nan nan nan nan nan nan nan nan nan nan nan nan nan nan nan nan nan nan nan nan nan nan nan nan nan nan nan nan nan nan nan nan nan 0 4 4 7 13 18 18 27 34 38 38 44 51 60 65 65 68 68 74 74 77 81 84 84 84 60 60 50 58 83 83 127
103 112 122 133 133 125 127 138 151 151 163 167 154 154 11 nan nan nan nan nan nan nan nan nan nan nan nan nan nan nan nan nan nan nan nan nan nan nan nan nan nan nan nan nan nan nan nan nan nan nan nan nan nan nan nan 1 1 4 8 11 11 17 26 32 32 42 48 56 67 67 71 72 74 74 78 83 89 89 86 64 64 38 40 43 43 30
47 63 80 100 100 103 114 125 145 145 166 196 208 208 114 nan nan nan nan nan nan nan nan nan nan nan nan nan nan nan nan nan nan nan nan nan nan nan nan nan nan nan nan nan nan nan nan nan nan nan nan nan nan nan nan nan nan 1 5 6 6 10 15 25 25 37 45 53 61 61 73 77 77 77 83 88 96 96 94 71 71 41 25 32 32 17
nan 3 13 37 37 63 64 38 68 68 123 162 177 177 148 0 nan nan nan nan nan nan nan nan nan nan nan nan nan nan nan nan nan nan nan nan nan nan nan nan nan nan nan nan nan nan nan nan nan nan nan nan nan nan nan nan nan nan nan 1 1 1 6 14 14 29 38 45 57 57 67 79 82 82 86 93 97 97 96 81 81 43 19 24 24 17
nan nan nan nan nan nan nan nan 0 0 44 98 122 122 99 26 nan nan nan nan nan nan nan nan nan nan nan nan nan nan nan nan nan nan nan nan nan nan nan nan nan nan nan nan nan nan nan nan nan nan nan nan nan nan nan nan nan nan nan nan nan nan 1 5 5 17 29 39 48 48 59 72 83 83 85 93 100 100 97 81 81 45 19 16 16 10
nan nan nan nan nan nan nan nan nan nan nan nan nan nan 2 3 4 4 nan nan nan nan nan nan nan nan nan nan nan nan nan nan nan nan nan nan nan nan nan nan nan nan nan nan nan nan nan nan nan nan nan nan nan nan nan nan nan nan nan nan nan nan nan nan nan 2 6 17 28 28 40 49 65 65 82 91 94 94 93 83 83 60 29 13 13 8
nan nan nan nan nan nan 0 nan nan nan nan nan nan nan nan nan 4 4 nan nan nan nan nan nan nan nan nan nan nan nan nan nan nan nan nan nan nan nan nan nan nan nan nan nan nan nan nan nan nan nan nan nan nan nan nan nan nan nan nan nan nan nan nan nan nan nan 0 4 13 13 32 42 59 59 73 85 89 89 92 86 86 75 50 17 17 14
nan nan nan nan nan nan 0 1 0 0 nan nan nan nan nan nan nan nan 2 nan nan nan nan nan nan nan nan nan nan nan nan nan nan nan nan nan nan nan nan nan nan nan nan nan nan nan nan nan nan nan nan nan nan nan nan nan nan nan nan nan nan nan nan nan nan nan nan nan nan nan 11 25 50 50 62 73 86 86 87 90 90 82 73 35 35 19
nan nan nan nan nan nan 0 3 4 4 3 3 0 0 nan nan nan nan nan nan nan nan nan nan nan nan nan nan nan nan nan nan nan nan nan nan nan nan nan nan nan nan nan nan nan nan nan nan nan nan nan nan nan nan nan nan nan nan nan nan nan nan nan nan nan nan nan nan 0 0 6 14 28 28 41 60 76 76 82 87 87 84 83 73 73 39
nan nan nan nan nan 0 5 15 18 18 21 14 0 0 nan nan nan nan nan nan nan nan nan nan nan nan nan nan nan nan nan nan nan nan nan nan nan nan nan nan nan nan nan nan nan nan nan nan nan nan nan nan nan nan nan nan nan nan nan nan nan nan nan nan nan nan nan nan nan nan 7 15 19 19 25 55 70 70 76 82 82 87 90 84 84 67
nan nan 0 0 0 4 16 18 29 29 37 14 nan nan nan nan nan nan nan nan nan nan nan nan nan nan nan nan nan nan nan nan nan nan nan nan nan nan nan nan nan nan nan nan nan nan nan nan nan nan nan nan nan nan nan nan nan nan nan nan nan nan nan nan nan nan nan nan nan nan 3 16 22 22 24 46 53 53 72 76 76 78 90 90 90 82
nan nan nan nan nan nan 6 23 39 39 40 22 3 3 nan nan nan nan nan nan nan nan nan nan nan nan nan nan nan nan nan nan nan nan nan nan nan nan nan nan nan nan nan nan nan nan nan nan nan nan nan nan nan nan nan nan nan nan nan nan nan nan nan nan nan nan nan nan nan nan 2 13 15 15 16 22 25 25 26 22 22 44 86 87 87 91
0 nan nan nan nan nan 9 28 33 33 30 28 19 19 3 nan nan nan nan nan nan nan nan nan nan nan nan nan nan nan nan nan nan nan nan nan nan nan nan nan nan nan nan nan nan nan nan nan nan nan nan nan nan nan nan nan nan nan nan nan nan nan nan nan nan nan nan nan nan nan nan 0 7 7 4 2 5 5 5 2 2 4 10 30 30 70
nan nan nan 1 1 0 3 18 9 9 4 23 25 25 7 nan nan nan nan nan nan nan nan nan nan nan nan nan nan nan nan nan nan nan nan nan nan nan nan nan nan nan nan nan nan nan nan nan nan nan nan nan nan nan nan nan nan nan nan nan nan nan nan nan nan nan nan nan nan nan nan nan nan nan 0 nan nan nan nan nan nan 0 5 0 0 nan
2 6 7 4 4 10 30 38 22 22 10 20 12 12 2 nan nan nan nan nan nan 0 nan nan nan nan nan nan nan nan nan nan nan nan nan nan nan nan nan nan nan nan nan nan nan nan nan nan nan nan nan nan nan nan nan nan nan nan 0 nan nan nan nan nan nan nan nan nan nan nan nan nan nan nan nan nan nan nan nan nan nan nan 4 2 2 0
49 53 35 21 21 22 22 17 20 20 11 7 9 9 3 nan nan nan nan nan nan nan nan nan nan nan nan nan nan nan nan nan nan nan nan nan nan nan nan nan nan nan nan nan nan nan nan nan nan nan nan nan nan nan nan nan nan nan 1 nan nan nan nan nan nan nan nan nan nan nan nan nan nan nan nan nan nan nan nan nan nan nan 2 1 1 1
51 52 45 41 41 25 12 6 4 4 3 0 0 0 1 0 0 0 nan nan nan nan nan nan nan nan nan nan nan nan nan nan nan nan nan nan nan nan nan nan nan nan nan nan nan nan nan nan nan nan nan nan nan nan nan nan nan nan nan nan nan nan nan nan nan nan nan nan nan nan nan nan nan nan nan nan nan nan nan nan nan 1 1 nan nan nan
30 32 33 31 31 24 21 7 nan nan nan nan nan nan nan 2 10 10 2 nan nan nan nan nan nan nan nan nan nan nan nan nan nan nan nan nan nan nan nan nan nan nan nan nan nan nan nan nan nan nan nan nan nan nan nan nan nan nan nan nan nan nan nan nan nan nan nan nan nan nan nan nan nan nan nan nan nan nan nan nan nan nan nan nan nan nan
nan 9 24 36 36 40 28 11 3 3 1 2 3 3 3 6 22 22 3 nan nan nan nan nan nan nan nan nan nan nan nan nan nan nan nan 1 3 3 nan nan nan nan nan nan nan nan nan nan nan nan nan nan nan nan nan nan nan nan nan nan nan nan nan nan nan nan nan nan nan nan nan nan nan nan nan nan nan nan nan nan nan nan nan nan nan nan
nan 12 25 30 30 30 40 38 25 25 17 21 16 16 9 12 16 16 13 3 3 0 nan nan nan nan nan nan nan nan nan nan nan nan nan nan 0 0 nan nan nan nan nan nan nan nan nan nan nan nan nan nan nan nan nan nan nan nan nan nan nan nan nan nan nan nan nan nan nan nan nan nan nan nan nan nan nan nan nan nan nan nan nan nan nan nan
nan nan 6 10 10 16 15 17 17 17 21 25 19 19 16 8 11 11 13 11 11 1 nan nan nan nan nan nan nan nan nan nan nan nan nan nan nan nan nan nan nan nan nan nan nan nan nan nan nan nan nan nan nan nan nan nan nan nan nan nan nan nan nan nan nan nan nan nan nan nan nan nan nan nan nan nan nan nan nan nan nan nan nan nan nan nan
nan nan 1 4 4 4 4 3 8 8 21 25 21 21 21 16 14 14 12 6 6 6 3 nan nan nan nan nan nan nan nan nan nan nan nan nan nan nan nan nan nan nan nan nan nan nan nan nan nan nan nan nan nan nan nan nan nan nan nan nan nan nan nan nan nan nan nan nan nan nan nan nan nan nan nan nan nan nan nan nan nan nan nan nan nan nan
nan nan nan nan nan 0 nan 0 3 3 14 24 31 31 25 42 80 80 36 14 14 4 1 nan nan nan nan nan nan nan nan nan nan nan nan nan nan nan nan nan nan nan nan nan nan nan nan nan nan nan nan nan nan nan nan nan nan nan nan nan nan nan nan nan nan nan nan nan nan nan nan nan nan nan nan nan nan nan nan nan nan nan nan nan nan nan
nan nan nan nan nan nan nan nan nan nan 2 19 22 22 15 16 38 38 53 31 31 10 1 nan nan nan nan nan nan nan nan nan nan nan nan nan nan nan nan nan nan nan nan nan nan nan nan nan nan nan 3 nan nan nan nan nan nan nan nan nan nan nan nan nan nan nan nan nan nan nan nan nan nan nan nan nan nan nan nan nan nan nan nan nan nan nan
3 nan nan nan nan nan nan nan nan nan nan 2 4 4 8 17 33 33 31 21 21 9 1 nan nan nan nan nan nan nan nan nan nan nan nan nan nan nan nan nan nan nan nan nan nan nan nan nan nan nan 15 31 8 8 nan nan nan nan nan nan nan nan nan nan nan nan 1 nan nan nan nan nan nan nan nan nan nan nan nan nan nan nan nan nan nan nan
CIN
nan nan nan nan nan nan nan nan nan nan nan nan nan nan nan nan nan nan nan nan nan nan nan nan nan nan nan -32 -4 -4 -0 -0 -0 -0 -0 -0 -0 -0 -0 -0 -0 -0 -0 -0 -0 -0 -0 -0 -0 -0 -0 -0 -0 -0 -0 -0 -0 -0 -0 -0 -0 -0 -0 -0 -0 -0 -0 -0 -0 -0 -0 -0 -0 -0 -0 -0 -0 -0 -0 -0 -0 -0 -0 -0 -0 -0
nan nan nan nan nan nan nan nan nan nan nan nan nan nan nan nan nan nan nan nan nan nan nan nan nan nan nan nan -14 -14 -0 -0 -0 -0 -0 -0 -0 -0 -0 -0 -0 -0 -0 -0 -0 -0 -0 -0 -0 -0 -0 -0 -0 -0 -0 -0 -0 -0 -0 -0 -0 -0 -0 -0 -0 -0 -0 -0 -0 -0 -0 -0 -0 -0 -0 -0 -0 -0 -0 -0 -0 -0 -0 -0 -0 -0
nan nan nan nan nan nan nan nan nan nan nan nan nan nan nan nan nan nan nan nan nan nan nan nan nan nan nan nan -19 -19 -2 -0 -0 -0 -0 -0 -0 -0 -0 -0 -0 -0 -0 -0 -0 -0 -0 -0 -0 -0 -0 -0 -0 -0 -0 -0 -0 -0 -0 -0 -0 -0 -0 -0 -0 -0 -0 -0 -0 -0 -0 -0 -0 -0 -0 -0 -0 -0 -0 -0 -0 -0 -0 -0 -0 -0
nan nan nan nan nan nan nan nan nan nan nan nan nan nan nan nan nan nan nan nan nan nan nan nan nan nan nan nan nan nan -4 -0 -0 -0 -0 -0 -0 -0 -0 -0 -0 -0 -0 -0 -0 -0 -0 -0 -0 -0 -0 -0 -0 -0 -0 -0 -0 -0 -0 -0 -0 -0 -0 -0 -0 -0 -0 -0 -0 -0 -0 -0 -0 -0 -0 -0 -0 -0 -0 -0 -0 -0 -0 -0 -0 -0
nan nan nan nan nan nan nan nan nan nan nan nan nan nan nan nan nan nan nan nan nan nan nan nan nan nan nan nan nan nan -6 -0 -0 -0 -0 -0 -0 -0 -0 -0 -0 -0 -0 -0 -0 -0 -0 -0 -0 -0 -0 -0 -0 -0 -0 -0 -0 -0 -0 -0 -0 -0 -0 -0 -0 -0 -0 -0 -0 -0 -0 -0 -0 -0 -0 -0 -0 -0 -0 -0 -0 -0 -0 -0 -0 -0
nan nan nan nan nan nan nan nan nan nan nan nan nan nan nan nan nan nan nan nan nan nan nan nan nan nan nan nan nan nan -7 -0 -0 -0 -0 -0 -0 -0 -0 -0 -0 -0 -0 -0 -0 -0 -0 -0 -0 -0 -0 -0 -0 -0 -0 -0 -0 -0 -0 -0 -0 -0 -0 -0 -0 -0 -0 -0 -0 -0 -0 -0 -0 -0 -0 -0 -0 -0 -0 -0 -0 -0 -0 -0 -0 -0
nan nan nan nan nan nan nan nan nan nan nan nan nan nan nan nan nan nan nan nan nan nan nan nan nan nan nan nan nan nan -4 -0 -0 -0 -0 -0 -0 -0 -0 -0 -0 -0 -0 -0 -0 -0 -0 -0 -0 -0 -0 -0 -0 -0 -0 -0 -0 -0 -0 -0 -0 -0 -0 -0 -0 -0 -0 -0 -0 -0 -0 -0 -0 -0 -0 -0 -0 -0 -0 -0 -0 -0 -0 -0 -0 -0
nan nan nan nan nan nan nan nan nan nan nan nan nan nan nan nan nan nan nan nan nan nan nan nan nan nan nan nan nan nan nan nan nan nan nan nan -0 -0 -0 -0 -0 -0 -0 -0 -0 -0 -0 -0 -0 -0 -0 -0 -0 -0 -0 -0 -0 -0 -0 -0 -0 -0 -0 -0 -0 -0 -0 -0 -0 -0 -0 -0 -0 -0 -0 -0 -0 -0 -0 -0 -0 -0 -0 -0 -0 -0
nan nan nan nan nan nan nan nan nan nan nan nan nan nan nan nan nan nan nan nan nan nan nan nan nan nan nan nan nan nan nan nan nan nan nan nan nan nan nan -0 -0 -0 -0 -0 -0 -0 -0 -0 -0 -0 -0 -0 -0 -0 -0 -0 -0 -0 -0 -0 -0 -0 -0 -0 -0 -0 -0 -0 -0 -0 -0 -0 -0 -0 -0 -0 -0 -0 -0 -0 -0 -0 -0 -0 -0 -0
nan nan nan nan nan nan nan nan nan nan nan nan nan nan nan nan nan nan nan nan nan nan nan nan nan nan nan nan nan nan nan nan -0 -0 -0 -0 -0 -0 -4 -0 -0 -2 -0 -0 -0 -0 -0 -0 -0 -0 -0 -0 -0 -0 -0 -0 -0 -0 -0 -0 -0 -0 -0 -0 -0 -0 -0 -0 -0 -0 -0 -0 -0 -0 -0 -0 -0 -0 -0 -0 -0 -0 -0 -0 -0 -0
nan nan nan nan nan nan nan nan nan nan nan nan nan nan nan nan nan nan nan nan nan nan nan nan nan nan nan nan nan nan nan nan nan nan nan nan -0 -0 -0 -1 -1 -0 -0 -0 -0 -0 -0 -0 -0 -0 -0 -0 -0 -0 -0 -0 -0 -0 -0 -0 -0 -0 -0 -0 -0 -0 -0 -0 -0 -0 -0 -0 -0 -0 -0 -0 -0 -0 -0 -0 -0 -0 -0 -0 -0 -0
nan nan nan nan nan nan nan nan nan nan nan nan nan nan nan nan nan nan nan nan nan nan nan nan nan nan nan nan nan nan nan nan nan nan nan nan nan nan nan nan nan nan nan nan nan -1 -0 -0 -0 -0 -0 -0 -0 -0 -0 -0 -0 -0 -0 -0 -0 -0 -0 -0 -0 -0 -0 -0 -0 -0 -0 -0 -0 -0 -0 -0 -0 -0 -0 -0 -0 -0 -0 -0 -0 -0
nan nan nan nan nan nan nan nan nan nan nan nan nan nan nan nan nan nan nan nan nan nan nan nan nan nan nan nan nan nan nan nan nan nan nan nan nan nan nan nan nan nan nan nan nan nan nan nan nan -0 -0 -0 -0 -0 -0 -0 -0 -0 -0 -0 -0 -0 -0 -0 -0 -0 -0 -0 -0 -0 -0 -0 -0 -0 -0 -0 -0 -0 -0 -0 -0 -0 -0 -0 -0 -0
nan nan nan nan nan nan nan nan nan nan nan nan nan nan nan nan nan nan nan nan nan nan nan nan nan nan nan nan nan nan nan nan nan nan nan nan nan nan nan nan nan nan nan nan nan nan nan nan nan nan nan nan -0 -0 -0 -0 -0 -0 -0 -0 -0 -0 -0 -0 -0 -0 -0 -0 -0 -0 -0 -0 -0 -0 -0 -0 -0 -0 -0 -0 -0 -0 -0 -0 -0 -0
nan nan nan nan nan nan nan nan nan nan nan nan nan nan nan nan nan nan nan nan nan nan nan nan nan nan nan nan nan nan nan nan nan nan nan nan nan nan nan nan nan nan nan nan nan nan nan nan nan nan nan nan nan nan nan nan nan -0 -0 -0 -0 -0 -0 -0 -0 -0 -0 -0 -0 -0 -0 -0 -0 -0 -0 -0 -0 -0 -0 -0 -0 -0 -0 -0 -0 -0
nan nan nan nan nan nan nan nan nan nan nan nan nan nan nan nan nan nan nan nan nan nan nan nan nan nan nan nan nan nan nan nan nan nan nan nan nan nan nan nan nan nan nan nan nan nan nan nan nan nan nan nan nan nan -0 -0 -0 -0 -0 -0 -0 -0 -0 -0 -0 -0 -0 -0 -0 -0 -0 -0 -0 -0 -0 -0 -0 -0 -0 -0 -0 -0 -0 -0 -0 -0
nan nan nan nan nan nan nan nan nan nan nan nan nan nan nan nan nan nan nan nan nan nan nan nan nan nan nan nan nan nan nan nan nan nan nan nan nan nan nan nan nan nan nan nan nan nan nan nan nan nan nan nan nan nan -0 -0 -0 -0 -0 -0 -0 -0 -0 -0 -0 -0 -0 -0 -0 -0 -0 -0 -0 -0 -0 -0 -0 -0 -0 -0 -0 -0 -0 -0 -0 -0
nan nan nan nan nan nan nan nan nan nan nan nan nan nan nan nan nan nan nan nan nan nan nan nan nan nan nan nan nan nan nan nan nan nan nan nan nan nan nan nan nan nan nan nan nan nan nan nan nan nan nan nan -0 -0 -0 -0 -0 -0 -0 -0 -0 -0 -0 -0 -0 -0 -0 -0 -0 -0 -0 -0 -0 -0 -0 -0 -0 -0 -0 -0 -0 -0 -0 -0 -0 -0
nan nan nan nan nan nan nan nan nan nan nan nan nan nan nan nan nan nan nan nan nan nan nan nan nan nan nan nan nan nan nan nan nan nan nan nan nan nan nan nan nan nan nan nan nan nan nan nan nan nan nan -0 -0 -0 -0 -0 -0 -0 -0 -0 -0 -0 -0 -0 -0 -0 -0 -0 -0 -0 -0 -0 -0 -0 -0 -0 -0 -0 -0 -0 -0 -0 -0 -0 -0 -0
nan nan nan nan nan nan nan nan nan nan nan nan nan nan nan nan nan nan nan nan nan nan nan nan nan nan nan nan nan nan nan nan nan nan nan nan nan nan nan nan nan nan nan nan nan nan nan nan nan nan nan -0 -0 -0 -0 -0 -0 -0 -0 -0 -0 -0 -0 -0 -0 -0 -0 -0 -0 -0 -0 -0 -0 -0 -0 -0 -0 -0 -0 -0 -0 -0 -0 -0 -0 -0
nan nan nan nan nan nan nan nan nan nan nan nan nan nan nan nan nan nan nan nan nan nan nan nan nan nan nan nan nan nan nan nan nan nan nan nan nan nan nan nan nan nan nan nan nan nan nan nan nan nan nan -0 -0 -0 -0 -0 -0 -0 -0 -0 -0 -0 -0 -0 -0 -0 -0 -0 -0 -0 -0 -0 -0 -0 -0 -0 -0 -0 -0 -0 -0 -0 -0 -0 -0 -0
nan nan nan nan nan nan nan nan nan nan nan nan nan nan nan nan nan nan nan nan nan nan nan nan nan nan nan nan nan nan nan nan nan nan nan nan nan nan nan nan nan nan nan nan nan nan nan nan nan nan nan -0 -0 -0 -0 -0 -0 -0 -0 -0 -0 -0 -0 -0 -0 -0 -0 -0 -0 -0 -0 -0 -0 -0 -0 -0 -0 -0 -0 -0 -0 -0 -0 -0 -0 -0
nan nan nan nan nan nan nan nan nan nan nan nan nan nan nan nan nan nan nan nan nan nan nan nan nan nan nan nan nan nan nan nan nan nan nan nan nan nan nan nan nan nan nan nan nan nan nan nan nan nan nan -0 -0 -0 -0 -0 -0 -0 -0 -0 -0 -0 -0 -0 -0 -0 -0 -0 -0 -0 -0 -0 -0 -0 -0 -0 -0 -0 -0 -0 -0 -0 -0 -0 -0 -0
nan nan nan nan nan nan nan nan nan nan nan nan nan nan nan nan nan nan nan nan nan nan nan nan nan nan nan nan nan nan nan nan nan nan nan nan nan nan nan nan nan nan nan nan nan nan nan nan nan nan nan nan -0 -0 -0 -0 -0 -0 -0 -0 -0 -0 -0 -0 -0 -0 -0 -0 -0 -0 -0 -0 -0 -0 -0 -0 -0 -0 -0 -0 -0 -0 -0 -0 -0 -0
nan nan nan nan nan nan nan nan nan nan nan nan nan nan nan nan nan nan nan nan nan nan nan nan nan nan nan nan nan nan nan nan nan nan nan nan nan nan nan nan nan nan nan nan nan nan nan nan nan nan nan nan -0 -0 -0 -0 -0 -0 -0 -0 -0 -0 -0 -0 -0 -0 -0 -0 -0 -0 -0 -0 -0 -0 -0 -0 -0 -0 -0 -0 -0 -0 -0 -0 -0 -0
nan nan nan nan nan -1 -0 -0 -0 -0 -2 nan nan nan nan nan nan nan nan nan nan nan nan nan nan nan nan nan nan nan nan nan nan nan nan nan nan nan nan nan nan nan nan nan nan nan nan nan nan nan nan nan nan nan -0 -0 -0 -0 -0 -0 -0 -0 -0 -0 -0 -0 -0 -0 -0 -0 -0 -0 -0 -0 -0 -0 -0 -0 -0 -0 -0 -0 -0 -0 -0 -0
-0 -0 -0 -0 -0 -0 -0 -0 -0 -0 -0 -0 nan nan nan nan nan nan nan nan nan nan nan nan nan nan nan nan nan nan nan nan nan nan nan nan nan nan nan nan nan nan nan nan nan nan nan nan nan nan nan nan nan nan -0 -0 -0 -0 -0 -0 -0 -0 -0 -0 -0 -0 -0 -0 -0 -0 -0 -0 -0 -0 -0 -0 -0 -0 -0 -0 -0 -0 -0 -0 -0 -0
-0 -0 -0 -0 -0 -0 -0 -0 -0 -0 -0 -0 -0 -0 -1 nan nan nan nan nan nan nan nan nan nan nan nan nan nan nan nan nan nan nan nan nan nan nan nan nan nan nan nan nan nan nan nan nan nan nan nan nan nan nan nan -0 -0 -0 -0 -0 -0 -0 -0 -0 -0 -0 -0 -0 -0 -0 -0 -0 -0 -0 -0 -0 -0 -0 -0 -0 -0 -0 -0 -0 -0 -0
-0 -0 -0 -0 -0 -0 -0 -0 -0 -0 -0 -0 -0 -0 -0 nan nan nan nan nan nan nan nan nan nan nan nan nan nan nan nan nan nan nan nan nan nan nan nan nan nan nan nan nan nan nan nan nan nan nan nan nan nan nan nan nan nan -0 -0 -0 -0 -0 -0 -0 -0 -0 -0 -0 -0 -0 -0 -0 -0 -0 -0 -0 -0 -0 -0 -0 -0 -0 -0 -0 -0 -1
nan -2 -0 -0 -0 -0 -0 -4 -0 -0 -0 -0 -0 -0 -1 -6 nan nan nan nan nan nan nan nan nan nan nan nan nan nan nan nan nan nan nan nan nan nan nan nan nan nan nan nan nan nan nan nan nan nan nan nan nan nan nan nan nan nan nan -0 -0 -0 -0 -0 -0 -0 -0 -0 -0 -0 -0 -0 -0 -0 -0 -0 -0 -0 -0 -0 -0 -0 -0 -0 -0 -0
nan nan nan nan nan nan nan nan -9 -9 -0 -0 -0 -0 -1 -6 nan nan nan nan nan nan nan nan nan nan nan nan nan nan nan nan nan nan nan nan nan nan nan nan nan nan nan nan nan nan nan nan nan nan nan nan nan nan nan nan nan nan nan nan nan nan -0 -0 -0 -0 -0 -0 -0 -0 -0 -0 -0 -0 -0 -0 -0 -0 -0 -0 -0 -0 -0 -0 -0 -0
nan nan nan nan nan nan nan nan nan nan nan nan nan nan -4 -4 -7 -7 nan nan nan nan nan nan nan nan nan nan nan nan nan nan nan nan nan nan nan nan nan nan nan nan nan nan nan nan nan nan nan nan nan nan nan nan nan nan nan nan nan nan nan nan nan nan nan -0 -0 -0 -0 -0 -0 -0 -0 -0 -0 -0 -0 -0 -0 -0 -0 -0 -0 -1 -1 -0
nan nan nan nan nan nan -11 nan nan nan nan nan nan nan nan nan -4 -4 nan nan nan nan nan nan nan nan nan nan nan nan nan nan nan nan nan nan nan nan nan nan nan nan nan nan nan nan nan nan nan nan nan nan nan nan nan nan nan nan nan nan nan nan nan nan nan nan -3 -0 -0 -0 -0 -0 -0 -0 -0 -0 -0 -0 -0 -0 -0 -0 -0 -1 -1 -0
nan nan nan nan nan nan -10 -9 -12 -12 nan nan nan nan nan nan nan nan -7 nan nan nan nan nan nan nan nan nan nan nan nan nan nan nan nan nan nan nan nan nan nan nan nan nan nan nan nan nan nan nan nan nan nan nan nan nan nan nan nan nan nan nan nan nan nan nan nan nan nan nan -2 -0 -0 -0 -0 -0 -0 -0 -0 -0 -0 -0 -0 -0 -0 -1
nan nan nan nan nan nan -9 -8 -10 -10 -14 -17 -18 -18 nan nan nan nan nan nan nan nan nan nan nan nan nan nan nan nan nan nan nan nan nan nan nan nan nan nan nan nan nan nan nan nan nan nan nan nan nan nan nan nan nan nan nan nan nan nan nan nan nan nan nan nan nan nan -7 -7 -3 -1 -0 -0 -0 -0 -0 -0 -0 -0 -0 -0 -0 -0 -0 -0
nan nan nan nan nan -10 -6 -6 -8 -8 -10 -16 -36 -36 nan nan nan nan nan nan nan nan nan nan nan nan nan nan nan nan nan nan nan nan nan nan nan nan nan nan nan nan nan nan nan nan nan nan nan nan nan nan nan nan nan nan nan nan nan nan nan nan nan nan nan nan nan nan nan nan -4 -2 -1 -1 -0 -0 -0 -0 -0 -0 -0 -0 -0 -0 -0 -0
nan nan -7 -12 -12 -8 -5 -9 -9 -9 -8 -22 nan nan nan nan nan nan nan nan nan nan nan nan nan nan nan nan nan nan nan nan nan nan nan nan nan nan nan nan nan nan nan nan nan nan nan nan nan nan nan nan nan nan nan nan nan nan nan nan nan nan nan nan nan nan nan nan nan nan -9 -2 -1 -1 -0 -0 -0 -0 -0 -0 -0 -0 -0 -0 -0 -0
nan nan nan nan nan nan -15 -11 -8 -8 -9 -18 -41 -41 nan nan nan nan nan nan nan nan nan nan nan nan nan nan nan nan nan nan nan nan nan nan nan nan nan nan nan nan nan nan nan nan nan nan nan nan nan nan nan nan nan nan nan nan nan nan nan nan nan nan nan nan nan nan nan nan -10 -5 -2 -2 -1 -1 -1 -1 -0 -0 -0 -0 -0 -0 -0 -0
-7 nan nan nan nan nan -22 -13 -15 -15 -19 -22 -26 -26 -36 nan nan nan nan nan nan nan nan nan nan nan nan nan nan nan nan nan nan nan nan nan nan nan nan nan nan nan nan nan nan nan nan nan nan nan nan nan nan nan nan nan nan nan nan nan nan nan nan nan nan nan nan nan nan nan nan -26 -8 -8 -3 -2 -1 -1 -0 -0 -0 -0 -0 -0 -0 -0
nan nan nan -20 -20 -32 -31 -19 -30 -30 -42 -15 -12 -12 -26 nan nan nan nan nan nan nan nan nan nan nan nan nan nan nan nan nan nan nan nan nan nan nan nan nan nan nan nan nan nan nan nan nan nan nan nan nan nan nan nan nan nan nan nan nan nan nan nan nan nan nan nan nan nan nan nan nan nan nan -12 nan nan nan nan nan nan -0 -0 -0 -0 nan
-12 -12 -15 -23 -23 -21 -11 -8 -21 -21 -40 -15 -22 -22 -32 nan nan nan nan nan nan -0 nan nan nan nan nan nan nan nan nan nan nan nan nan nan nan nan nan nan nan nan nan nan nan nan nan nan nan nan nan nan nan nan nan nan nan nan -10 nan nan nan nan nan nan nan nan nan nan nan nan nan nan nan nan nan nan nan nan nan nan nan -0 -0 -0 -0
-2 -2 -5 -11 -11 -9 -13 -24 -19 -19 -31 -37 -23 -23 -27 nan nan nan nan nan nan nan nan nan nan nan nan nan nan nan nan nan nan nan nan nan nan nan nan nan nan nan nan nan nan nan nan nan nan nan nan nan nan nan nan nan nan nan -12 nan nan nan nan nan nan nan nan nan nan nan nan nan nan nan nan nan nan nan nan nan nan nan -0 -0 -0 -0
-1 -1 -2 -2 -2 -6 -14 -18 -27 -27 -34 -34 -27 -27 -24 -22 -11 -11 nan nan nan nan nan nan nan nan nan nan nan nan nan nan nan nan nan nan nan nan nan nan nan nan nan nan nan nan nan nan nan nan nan nan nan nan nan nan nan nan nan nan nan nan nan nan nan nan nan nan nan nan nan nan nan nan nan nan nan nan nan nan nan -0 -0 nan nan nan
-4 -5 -6 -7 -7 -9 -7 -12 nan nan nan nan nan nan nan -16 -6 -6 -8 nan nan nan nan nan nan nan nan nan nan nan nan nan nan nan nan nan nan nan nan nan nan nan nan nan nan nan nan nan nan nan nan nan nan nan nan nan nan nan nan nan nan nan nan nan nan nan nan nan nan nan nan nan nan nan nan nan nan nan nan nan nan nan nan nan nan nan
nan -10 -6 -5 -5 -3 -4 -9 -14 -14 -17 -14 -13 -13 -16 -14 -3 -3 -8 nan nan nan nan nan nan nan nan nan nan nan nan nan nan nan nan -1 -0 -0 nan nan nan nan nan nan nan nan nan nan nan nan nan nan nan nan nan nan nan nan nan nan nan nan nan nan nan nan nan nan nan nan nan nan nan nan nan nan nan nan nan nan nan nan nan nan nan nan
nan -6 -4 -5 -5 -4 -1 -2 -3 -3 -5 -4 -6 -6 -11 -11 -7 -7 -6 -11 -11 -16 nan nan nan nan nan nan nan nan nan nan nan nan nan nan -2 -2 nan nan nan nan nan nan nan nan nan nan nan nan nan nan nan nan nan nan nan nan nan nan nan nan nan nan nan nan nan nan nan nan nan nan nan nan nan nan nan nan nan nan nan nan nan nan nan nan
nan nan -7 -8 -8 -6 -7 -7 -5 -5 -4 -3 -5 -5 -8 -14 -12 -12 -8 -7 -7 -13 nan nan nan nan nan nan nan nan nan nan nan nan nan nan nan nan nan nan nan nan nan nan nan nan nan nan nan nan nan nan nan nan nan nan nan nan nan nan nan nan nan nan nan nan nan nan nan nan nan nan nan nan nan nan nan nan nan nan nan nan nan nan nan nan
nan nan -7 -8 -8 -10 -11 -12 -8 -8 -4 -4 -6 -6 -8 -11 -11 -11 -12 -16 -16 -14 -17 nan nan nan nan nan nan nan nan nan nan nan nan nan nan nan nan nan nan nan nan nan nan nan nan nan nan nan nan nan nan nan nan nan nan nan nan nan nan nan nan nan nan nan nan nan nan nan nan nan nan nan nan nan nan nan nan nan nan nan nan nan nan nan
nan nan nan nan nan -13 nan -17 -12 -12 -6 -5 -5 -5 -7 -1 -0 -0 -2 -13 -13 -18 -22 nan nan nan nan nan nan nan nan nan nan nan nan nan nan nan nan nan nan nan nan nan nan nan nan nan nan nan nan nan nan nan nan nan nan nan nan nan nan nan nan nan nan nan nan nan nan nan nan nan nan nan nan nan nan nan nan nan nan nan nan nan nan nan
nan nan nan nan nan nan nan nan nan nan -9 -5 -6 -6 -10 -12 -5 -5 -3 -6 -6 -12 -22 nan nan nan nan nan nan nan nan nan nan nan nan nan nan nan nan nan nan nan nan nan nan nan nan nan nan nan -3 nan nan nan nan nan nan nan nan nan nan nan nan nan nan nan nan nan nan nan nan nan nan nan nan nan nan nan nan nan nan nan nan nan nan nan
-6 nan nan nan nan nan nan nan nan nan nan -8 -9 -9 -11 -10 -6 -6 -5 -9 -9 -23 -35 nan nan nan nan nan nan nan nan nan nan nan nan nan nan nan nan nan nan nan nan nan nan nan nan nan nan nan -0 -0 -1 -1 nan nan nan nan nan nan nan nan nan nan nan nan -21 nan nan nan nan nan nan nan nan nan nan nan nan nan nan nan nan nan nan nan
Wind_Speed
6 5 5 6 6 5 6 6 6 7 6 5 5 5 5 6 6 6 8 7 6 6 6 6 6 7 8 12 16 19 21 23 24 25 26 26 27 27 28 28 27 27 27 26 26 26 25 25 25 25 26 26 26 26 26 26 27 27 27 27 27 28 28 29 29 29 29 29 30 31 32 32 31 30 29 28 29 31 34 36 36 35 33 32 30 28
7 6 5 6 6 7 7 7 7 7 6 6 5 5 5 6 5 5 6 7 7 6 6 6 6 6 7 10 14 18 20 22 24 25 26 26 27 27 27 28 27 27 27 26 26 26 25 25 25 25 25 26 26 26 26 26 26 26 26 27 27 27 27 28 28 29 29 29 29 30 31 31 31 30 29 28 28 29 31 33 34 34 32 31 30 28
8 8 7 7 7 8 7 7 7 7 7 7 7 7 7 7 7 7 6 7 8 7 7 6 6 7 8 9 13 17 20 22 23 24 25 26 26 27 27 27 27 27 27 26 26 25 25 25 25 25 25 25 25 26 26 26 26 26 26 26 26 26 27 27 28 28 29 29 29 29 30 30 29 29 28 27 26 26 28 30 31 32 31 30 29 28
10 10 9 7 7 8 8 8 8 8 8 8 8 8 9 9 8 8 8 8 8 8 8 8 8 8 7 8 11 15 19 21 23 24 25 25 26 27 27 27 27 27 27 26 26 25 25 25 25 25 25 25 25 26 26 26 27 27 26 26 26 26 26 26 27 28 28 29 29 29 29 28 28 27 26 25 25 25 25 26 28 30 30 30 30 29
10 10 9 7 7 8 8 8 8 8 7 7 8 8 8 8 8 8 8 9 9 9 8 8 9 8 8 8 10 14 19 21 23 24 25 25 26 26 27 27 27 27 27 26 26 25 25 25 25 25 25 25 25 25 26 26 26 27 26 26 26 25 25 26 26 27 28 28 29 29 28 27 26 25 24 24 24 24 24 24 25 26 28 28 29 28
10 9 8 7 7 7 7 7 7 7 7 7 7 8 8 7 7 7 8 8 8 8 8 8 8 9 9 9 11 15 18 21 23 24 25 25 26 26 27 27 27 27 27 26 26 25 25 25 24 24 25 25 25 25 25 26 26 26 26 26 26 25 25 26 26 26 27 28 29 29 28 27 25 24 23 23 23 24 24 23 23 23 25 25 26 26
10 9 8 7 7 6 6 6 6 7 7 7 7 7 7 7 7 7 7 7 8 7 7 8 8 8 9 10 12 14 17 19 21 22 24 25 25 26 26 26 27 27 26 26 25 25 24 24 24 24 24 25 25 25 25 26 26 26 26 26 26 26 26 26 26 26 27 28 28 29 28 27 25 24 23 23 23 23 23 23 22 22 22 22 22 22
9 9 8 8 7 6 6 6 7 7 7 7 7 7 7 6 6 7 8 8 7 7 7 7 8 8 9 9 11 12 12 13 15 16 18 20 21 22 23 24 25 25 25 25 25 24 24 24 24 24 24 24 24 25 25 25 26 26 26 26 26 26 26 26 26 26 26 27 28 28 28 27 25 24 23 23 23 23 23 23 22 22 22 21 20 20
10 9 9 9 8 8 7 7 7 7 7 7 7 7 7 7 7 7 7 8 7 7 7 7 8 8 8 8 8 9 10 10 10 11 12 12 14 15 18 20 22 23 23 23 23 23 23 23 23 23 23 24 24 24 25 25 26 26 26 26 26 26 26 26 26 26 26 27 27 28 28 27 25 24 24 23 23 23 23 23 23 22 22 21 21 21
10 10 9 9 8 8 8 8 7 7 7 7 7 7 7 8 8 8 8 8 7 6 6 7 8 8 7 7 6 7 8 11 13 14 15 15 15 16 17 17 18 19 21 21 22 22 22 23 23 23 23 23 24 24 25 25 25 26 26 26 26 26 26 26 26 26 26 26 27 27 27 26 25 25 24 24 23 23 23 23 23 22 22 22 22 22
9 9 9 8 8 7 7 7 7 6 6 6 7 7 7 7 8 8 10 9 8 7 7 7 7 7 7 6 6 6 6 8 10 13 16 17 18 19 19 18 18 18 19 20 20 21 21 22 22 23 23 23 24 24 24 24 25 25 26 26 26 27 27 26 26 26 26 26 27 27 27 26 25 25 24 24 24 23 23 22 22 23 23 22 22 22
8 7 7 7 6 6 6 6 6 6 5 6 6 7 7 7 7 8 9 10 9 8 8 7 7 7 7 6 5 5 6 6 6 7 8 10 12 13 13 13 14 14 15 16 17 18 20 21 21 22 22 22 22 23 23 23 24 24 25 26 26 26 27 27 26 26 26 26 26 26 26 26 25 25 25 25 25 24 23 23 23 23 23 23 23 22
7 6 5 6 6 6 6 6 5 5 5 6 6 7 7 6 6 7 8 9 9 9 8 7 7 7 7 6 5 5 5 5 5 5 5 5 6 6 6 6 6 7 7 8 9 11 15 17 18 19 19 20 20 21 22 22 22 23 24 25 25 26 26 26 26 26 26 26 26 26 26 25 25 25 25 25 25 25 24 23 23 23 23 23 23 23
7 6 6 6 6 6 6 6 6 6 7 6 6 7 7 6 6 6 7 8 8 8 7 8 7 6 6 6 5 5 5 5 4 4 4 4 4 4 4 4 5 5 4 5 5 7 10 12 12 13 16 17 18 19 19 20 21 22 23 23 24 24 25 26 26 26 26 26 26 26 25 25 25 24 25 25 25 25 24 24 23 23 23 24 24 24
7 6 7 7 7 6 6 6 6 7 7 6 6 6 6 6 6 6 6 7 7 6 6 7 7 7 6 6 5 5 5 5 5 5 5 4 4 4 4 4 4 4 4 5 6 7 9 8 8 8 9 12 13 15 17 18 20 21 22 22 23 23 24 24 25 25 26 26 26 25 25 25 24 24 24 25 25 25 24 24 23 23 23 23 24 24
6 6 8 8 7 7 6 6 6 6 6 6 6 6 6 6 6 6 6 6 6 5 4 5 6 6 6 5 5 5 5 5 5 5 5 5 4 4 4 4 4 4 4 5 5 6 6 6 6 7 7 11 14 17 19 20 21 21 22 22 22 22 23 23 24 24 24 25 25 25 25 24 24 24 24 24 24 24 24 24 24 23 23 23 23 23
6 7 7 8 7 7 6 6 6 6 5 5 5 6 6 6 6 5 5 5 4 4 4 5 5 5 4 4 4 5 5 5 5 5 5 5 4 4 4 4 4 5 5 5 5 5 5 5 5 6 7 11 15 18 20 20 21 22 22 22 22 22 22 22 23 23 23 23 24 24 24 24 24 24 24 24 24 24 24 24 25 24 24 23 23 22
6 6 6 7 7 6 6 6 6 6 5 5 5 5 5 6 5 5 5 5 5 5 5 5 5 4 4 3 3 4 5 5 5 4 4 4 4 4 4 4 4 5 5 5 5 5 5 5 5 6 8 14 17 19 20 21 21 22 22 22 22 22 22 22 22 22 22 22 22 23 23 23 23 23 23 23 23 23 23 24 25 26 25 24 23 22
5 5 6 6 6 6 6 5 5 5 4 4 4 4 5 5 5 5 5 5 5 6 6 6 5 5 5 5 3 3 4 4 4 4 4 4 4 3 3 4 4 5 5 6 6 5 5 5 7 10 13 17 19 20 21 21 21 22 22 22 22 22 22 22 21 21 21 21 21 22 22 23 23 23 23 22 22 22 22 24 26 27 27 26 25 23
5 5 5 5 5 5 5 6 5 5 5 5 5 5 5 5 5 5 6 5 6 6 6 6 7 6 5 5 4 3 3 3 3 3 4 4 4 4 3 3 4 5 5 6 5 5 5 5 7 10 14 17 19 20 21 21 21 22 22 22 22 22 22 21 21 21 21 21 21 21 22 22 22 22 22 21 20 20 21 22 25 27 29 29 27 26
7 7 6 5 4 4 5 5 5 6 6 6 5 5 5 5 5 6 6 6 6 6 6 6 7 7 5 5 5 3 3 3 3 3 3 3 4 4 3 3 4 5 6 6 5 5 5 5 5 7 11 15 18 19 21 21 21 21 22 22 22 22 22 21 21 21 21 21 21 21 21 22 22 21 21 20 19 19 20 21 23 26 30 30 29 28
9 8 8 7 6 6 6 6 7 7 8 6 6 5 5 5 6 6 6 6 6 7 7 7 7 6 6 6 5 4 3 4 4 3 3 3 4 4 3 3 4 5 6 6 5 4 4 5 5 7 10 15 18 19 20 21 21 21 21 21 21 21 21 21 21 21 21 21 21 21 21 22 22 21 20 19 19 19 19 20 22 24 28 30 30 29
10 10 10 9 9 8 8 8 8 8 8 7 7 7 5 5 6 6 6 6 6 6 7 7 6 6 6 5 5 4 4 4 4 3 3 4 4 4 3 3 4 5 6 5 5 4 4 5 6 7 10 15 18 19 20 20 20 21 21 21 21 21 21 21 21 21 20 20 20 21 21 21 21 21 20 20 19 19 19 19 20 21 24 27 29 29
10 11 10 10 9 9 8 8 8 7 6 7 7 7 7 7 7 7 6 6 6 5 5 5 5 6 6 6 5 5 4 4 4 3 3 4 5 4 3 3 4 6 6 5 4 4 4 5 5 6 7 13 16 18 19 20 20 20 21 21 21 21 21 21 21 21 20 20 20 20 20 21 21 21 21 20 19 19 18 18 19 19 21 24 27 29
10 10 10 10 10 11 10 10 10 9 8 7 7 7 8 8 9 8 7 6 6 5 4 5 6 6 6 6 6 5 4 4 4 4 4 4 5 4 4 3 4 5 5 4 4 4 4 5 5 5 5 9 13 17 18 19 19 20 20 21 21 21 21 21 21 21 20 20 20 20 20 20 20 20 21 20 20 19 18 18 18 18 19 22 25 28
14 14 14 15 17 19 20 19 19 18 16 12 9 8 7 7 7 7 6 6 6 5 5 6 7 7 6 5 5 5 4 4 5 5 4 4 4 4 4 4 4 5 5 4 3 4 4 5 5 5 4 6 10 14 16 18 19 19 20 20 21 21 21 21 21 21 20 20 20 20 20 20 20 20 20 20 20 19 18 17 17 17 18 20 23 26
23 23 24 25 25 25 26 26 26 26 25 22 18 13 10 7 6 6 7 6 6 6 6 7 7 7 6 6 5 5 4 4 5 6 5 4 4 5 4 4 4 4 4 4 4 4 5 5 5 5 4 5 6 9 14 16 18 19 20 20 20 20 20 20 20 20 20 20 20 20 20 19 19 19 20 20 20 20 19 17 16 16 17 18 19 21
26 27 27 27 27 27 27 27 27 27 27 27 26 23 16 9 6 6 7 6 6 6 7 7 7 7 6 6 5 5 4 5 5 5 5 4 4 5 4 3 3 4 4 3 3 4 6 6 5 5 4 5 5 7 11 14 16 18 18 19 19 20 20 20 20 20 20 20 20 20 20 19 19 19 19 19 19 19 19 17 16 15 15 14 11 11
22 24 24 25 26 26 26 25 24 24 25 26 26 25 19 11 8 6 6 5 5 6 7 8 8 7 6 6 5 4 5 5 5 5 5 4 4 5 4 3 3 3 3 3 3 3 4 5 4 4 4 6 6 6 7 11 12 14 15 17 18 18 19 19 19 19 19 19 19 19 19 19 19 19 19 19 19 19 18 17 16 13 10 9 7 6
14 16 17 18 19 19 19 17 17 18 20 23 24 23 18 12 9 7 5 5 6 7 8 8 8 7 6 5 5 4 5 5 5 6 6 5 5 4 4 4 4 4 3 2 2 3 3 4 4 4 5 6 6 6 5 6 7 7 9 11 13 15 17 17 18 18 18 18 18 19 19 19 19 18 18 18 18 18 18 18 15 11 6 5 5 5
10 10 10 11 11 11 11 10 10 12 14 17 18 17 15 12 9 7 6 6 7 7 8 8 8 7 6 5 5 4 4 4 5 6 6 5 5 4 4 4 4 4 4 3 2 2 3 3 3 3 4 5 5 5 5 5 5 5 5 6 7 9 13 15 16 16 16 17 17 18 18 18 18 18 18 18 18 18 18 18 15 11 5 4 4 4
8 8 7 7 7 7 7 7 7 8 9 10 11 11 11 11 10 8 7 6 7 7 8 8 8 7 7 6 6 5 4 3 5 7 7 5 4 4 4 4 4 4 4 4 4 3 3 2 2 2 2 3 3 4 4 5 4 4 4 4 5 6 11 12 13 13 13 14 15 16 17 17 17 17 17 17 17 17 17 18 16 12 7 5 4 4
7 6 6 6 6 5 5 6 6 6 7 7 8 8 9 9 10 10 8 7 7 7 8 8 8 8 8 8 8 7 5 4 4 7 8 5 4 3 4 4 4 4 4 4 4 4 3 3 2 2 2 2 2 2 3 4 4 4 4 5 5 5 8 8 8 8 9 10 11 12 14 15 15 16 16 16 16 17 17 18 17 14 10 6 5 4
6 6 6 6 6 6 6 6 6 7 7 7 8 8 8 8 9 9 9 8 7 8 8 8 8 8 8 7 7 7 6 5 5 6 8 6 4 3 3 4 4 4 3 4 4 4 3 3 3 3 2 2 2 2 2 3 4 4 4 5 4 4 5 5 5 5 6 6 6 7 9 10 11 12 13 14 14 15 17 18 18 18 16 10 7 5
6 7 6 6 6 6 6 7 7 7 8 8 8 8 8 8 8 8 9 8 8 8 8 8 8 8 8 7 7 7 6 5 5 6 7 6 5 4 3 4 5 4 4 4 4 3 3 4 4 4 3 3 3 3 2 3 3 4 4 4 5 4 4 4 4 4 5 5 5 5 5 5 6 7 8 10 11 13 15 17 19 20 20 16 12 8
6 6 6 5 5 5 6 7 7 7 8 8 8 8 8 8 8 8 8 8 8 8 8 8 8 8 8 7 7 7 6 4 5 6 7 6 5 4 4 4 5 5 5 4 4 3 3 4 4 5 5 4 4 3 3 3 3 3 3 4 4 4 4 4 4 4 4 4 4 4 4 4 4 4 5 8 10 11 12 14 17 19 21 21 19 15
5 5 4 4 5 5 6 6 6 7 7 7 6 6 7 7 8 8 8 8 8 8 8 9 9 9 9 8 8 7 6 5 4 5 6 6 5 5 5 4 5 5 5 5 4 4 4 4 4 4 5 5 4 3 2 2 3 3 3 4 4 4 4 4 4 4 3 4 4 4 4 4 4 4 5 7 8 9 10 11 13 16 20 22 22 21
4 4 5 5 5 6 7 7 6 6 6 6 6 6 6 7 8 9 9 9 9 9 8 8 8 8 11 11 10 9 7 6 5 5 6 6 5 5 5 5 5 6 6 5 5 5 5 4 4 4 4 4 4 4 3 3 3 3 3 3 3 4 4 4 4 4 3 4 4 5 4 4 3 3 4 4 4 4 5 5 6 9 14 18 22 24
6 6 6 7 7 7 7 7 7 6 5 5 5 5 5 7 7 8 7 7 8 8 8 8 7 7 9 10 11 11 10 8 7 7 7 6 6 6 6 5 5 6 6 5 5 5 5 5 5 4 4 3 3 3 3 3 3 3 3 3 3 3 3 4 4 4 4 3 4 4 4 3 3 2 2 2 2 2 2 2 3 4 6 8 13 18
8 8 8 9 9 8 7 7 7 6 5 4 4 4 4 5 5 6 6 6 6 7 8 7 7 6 7 8 9 10 10 9 8 7 6 6 6 6 6 6 6 6 5 5 5 5 5 5 5 5 5 3 3 3 3 3 3 3 3 3 2 3 3 3 4 4 3 3 3 3 3 3 2 2 2 2 2 2 2 1 1 2 2 2 4 8
8 9 9 8 7 6 6 5 5 4 4 4 4 3 3 3 3 4 4 5 6 6 6 6 6 6 6 6 7 8 9 8 8 8 6 7 7 7 6 6 6 5 5 5 5 5 6 6 5 5 5 4 4 4 4 4 4 5 5 4 3 3 3 4 4 3 3 3 3 3 3 3 3 3 2 2 2 2 2 1 1 1 1 0 1 3
8 8 7 6 5 5 4 4 5 5 5 4 4 4 3 3 3 3 3 4 4 5 5 5 5 5 6 6 6 7 7 8 8 8 8 8 9 8 7 7 6 5 5 5 5 6 6 6 6 6 5 5 4 4 4 4 4 5 5 4 3 3 3 4 4 3 4 3 3 3 4 3 3 2 3 3 2 2 2 2 2 2 2 1 1 2
7 6 6 6 6 6 6 7 6 6 5 5 4 4 4 3 3 3 4 4 5 5 5 5 5 5 5 6 6 6 6 7 7 8 8 8 9 9 8 8 7 6 5 5 5 5 6 7 7 6 5 5 5 5 5 5 4 4 4 4 4 3 2 2 2 3 4 4 3 3 4 3 3 2 2 2 2 2 2 3 3 4 4 3 2 2
7 6 6 7 6 6 6 6 6 5 5 5 5 4 4 4 4 4 4 4 4 4 4 4 4 4 5 6 6 5 5 5 6 7 8 9 9 9 9 9 8 7 7 6 5 5 5 6 6 6 5 5 5 5 5 5 4 4 4 5 5 4 3 2 2 3 3 4 4 4 4 3 2 2 1 1 1 1 2 2 3 3 3 3 3 2
6 6 6 6 5 5 5 5 5 5 4 5 5 5 4 4 4 4 4 4 4 4 4 3 3 3 5 5 5 5 4 4 4 5 6 9 11 12 10 9 8 8 7 7 6 5 5 5 5 5 4 5 5 6 6 5 5 5 5 5 5 5 4 3 3 3 4 4 4 4 4 3 2 2 2 1 1 1 1 2 3 3 3 3 3 3
5 5 6 5 4 5 6 5 5 5 5 5 5 5 5 5 4 4 5 5 5 5 5 4 4 4 5 5 4 4 3 3 3 4 4 6 7 9 9 9 8 8 7 7 7 6 6 5 4 4 4 4 5 6 6 5 5 5 5 5 5 5 4 4 4 4 4 4 4 4 4 3 3 2 2 2 2 1 1 1 2 3 3 3 3 4
5 6 6 5 5 5 5 5 5 5 6 6 6 6 5 5 4 4 5 5 5 5 5 5 6 6 7 5 4 4 4 4 4 3 3 4 5 6 6 7 8 8 7 7 7 7 6 6 5 4 4 4 5 5 5 5 5 5 5 5 5 4 4 4 4 4 5 5 5 4 4 3 3 3 3 3 2 2 1 1 1 2 2 3 3 3
6 6 6 5 5 5 5 5 5 6 7 7 6 6 5 5 5 5 5 5 5 5 5 5 5 6 7 6 5 5 5 4 4 4 3 4 4 5 5 5 6 6 7 7 7 7 7 6 6 5 5 5 5 5 4 4 5 5 5 5 5 5 5 4 4 4 5 5 5 5 5 4 4 4 4 3 3 2 2 2 2 2 2 2 3 3
6 6 6 6 6 6 6 6 6 6 7 7 7 6 5 5 7 7 6 5 5 5 5 5 6 6 6 6 5 5 5 5 4 4 3 4 4 4 4 4 4 4 5 5 6 6 6 6 7 7 7 6 6 5 4 4 4 4 4 5 5 5 5 4 4 4 5 5 6 6 6 5 5 5 4 4 4 3 3 3 3 2 2 2 3 3
6 6 6 6 6 6 6 6 7 7 8 8 7 6 5 5 5 6 6 6 6 5 5 6 6 6 6 6 6 5 6 5 4 4 4 3 3 4 4 4 4 4 4 4 4 4 4 5 6 8 10 10 9 7 6 5 4 4 4 4 4 4 5 4 4 5 5 5 6 6 7 6 5 5 4 4 4 4 4 3 3 3 3 3 3 3
6 6 6 6 6 6 7 7 7 7 8 8 7 7 6 5 5 5 5 5 5 5 5 5 6 6 7 6 6 6 6 5 5 4 4 4 4 4 4 4 4 4 4 4 4 3 3 3 4 5 9 13 14 12 8 6 5 4 4 4 4 4 4 4 4 5 6 6 6 6 7 6 6 5 5 5 5 4 4 4 4 4 4 4 4 4
Wind_Direction
278 280 280 276 277 278 275 270 271 275 278 278 278 279 282 284 286 286 285 280 271 258 248 244 241 241 245 252 256 258 261 263 265 268 270 273 275 277 279 280 281 282 282 282 282 281 280 278 277 276 275 274 274 274 273 273 274 274 274 274 274 274 274 273 271 269 267 265 264 262 261 259 257 255 254 254 252 248 243 238 235 233 232 232 231 230
278 280 279 275 274 275 276 272 271 273 278 280 281 282 284 285 285 285 286 282 275 266 255 248 243 239 238 244 251 255 258 261 263 266 269 271 274 276 277 279 280 281 281 282 282 282 281 280 279 277 276 275 274 274 273 273 273 273 273 274 274 275 275 275 274 272 270 268 267 265 264 262 259 256 253 253 253 250 245 239 235 232 230 229 229 229
279 280 278 277 276 276 277 276 274 273 276 279 281 281 283 283 282 280 278 277 274 269 261 255 250 245 240 242 248 253 255 258 261 264 267 269 271 273 275 276 277 278 279 280 280 281 281 280 279 278 277 275 274 274 273 273 273 272 272 273 273 274 274 275 275 274 273 271 269 268 267 266 262 258 253 253 253 252 248 241 235 231 228 226 226 225
278 278 278 279 276 274 273 274 274 273 274 276 277 277 276 276 275 273 270 268 267 265 262 258 255 252 248 246 249 252 254 257 260 262 265 267 269 271 272 274 275 276 276 277 278 279 279 279 279 278 277 276 275 274 273 273 273 272 272 271 271 272 272 273 273 273 273 272 271 270 269 269 266 263 257 255 253 252 249 243 236 231 227 225 223 223
272 273 276 276 273 270 269 270 271 272 272 272 272 271 270 268 267 266 265 262 261 261 260 258 256 254 254 251 251 253 255 257 259 261 263 265 267 269 270 272 273 274 275 276 276 277 278 278 279 279 278 277 276 275 274 274 273 273 272 271 271 270 270 270 271 271 272 271 271 270 269 270 269 267 262 258 254 251 249 245 239 233 228 225 223 222
268 269 272 271 270 270 270 268 269 270 271 269 267 264 262 260 260 260 260 258 257 257 257 256 255 254 254 253 254 255 257 259 260 262 264 265 267 268 269 271 272 273 274 275 276 276 277 278 278 279 279 279 278 277 276 275 274 274 273 272 271 270 269 269 269 270 270 270 270 269 269 269 269 268 266 261 256 252 249 246 241 235 230 226 223 221
267 267 269 269 269 268 268 265 263 263 265 266 264 262 259 257 256 255 255 254 255 255 256 256 255 254 254 255 256 258 259 261 263 264 265 266 268 268 269 271 272 273 274 275 276 276 277 277 278 278 279 279 279 278 278 276 275 275 274 273 272 271 269 269 268 268 269 269 269 268 267 267 267 267 266 263 258 254 249 246 242 237 231 226 223 220
269 269 267 268 268 267 264 261 258 257 258 260 261 261 260 257 255 253 252 252 252 253 255 256 256 255 254 255 257 259 260 263 264 266 266 267 268 269 270 271 272 273 274 275 275 276 276 277 277 278 278 279 279 279 279 278 277 276 275 274 273 272 270 269 268 268 268 268 268 267 266 265 265 265 265 263 260 256 252 247 243 239 234 228 224 220
267 268 266 264 264 266 266 262 257 254 253 255 256 257 258 258 257 256 254 252 249 248 249 253 254 254 253 253 255 257 259 259 260 260 262 263 264 265 267 268 270 271 272 273 274 274 275 276 276 277 278 278 279 279 279 279 278 277 276 275 274 273 271 270 268 267 266 266 266 266 265 264 263 263 263 262 260 257 253 249 245 241 237 232 227 223
262 263 264 261 260 260 263 263 260 255 251 252 253 253 254 257 259 260 259 256 251 247 245 247 250 252 254 252 251 253 256 257 257 257 257 258 259 260 261 263 265 267 268 270 271 272 273 274 275 276 277 278 279 279 280 279 279 278 276 275 274 273 272 270 268 267 265 265 265 264 264 263 263 262 262 261 259 257 253 249 246 242 239 235 232 228
258 258 259 259 257 255 255 259 259 257 250 252 253 252 250 249 252 257 260 259 256 252 248 246 247 249 252 251 248 246 248 253 255 256 257 258 260 261 262 263 264 265 267 269 270 272 273 274 275 276 277 278 279 280 280 280 279 278 277 276 275 273 272 271 269 267 265 264 263 263 263 262 262 262 261 260 258 256 253 249 246 242 239 236 234 231
255 255 255 256 255 254 253 254 254 252 247 248 250 251 249 244 244 248 254 257 258 256 254 252 249 247 247 249 248 246 242 245 248 251 254 256 258 260 262 263 265 267 268 270 272 273 274 275 276 277 278 279 280 280 280 280 280 279 278 276 275 274 272 271 269 267 265 264 263 262 261 261 261 261 260 258 256 255 252 250 246 242 238 235 233 232
252 252 254 254 253 252 253 254 253 249 243 240 241 244 247 244 241 243 248 253 255 256 256 257 255 251 247 246 246 247 245 245 244 244 244 246 248 251 255 259 262 264 267 270 271 272 273 274 275 276 277 278 278 279 280 280 280 279 278 277 275 274 273 271 270 268 266 264 263 261 260 260 260 260 259 257 254 252 251 249 247 243 239 235 232 231
252 252 253 253 252 251 251 251 251 249 245 240 240 242 246 246 244 244 247 251 253 254 255 258 258 256 252 247 245 246 248 250 249 246 243 240 236 233 236 245 249 251 253 258 261 263 264 267 270 273 274 275 277 278 278 279 279 279 278 277 276 275 273 272 271 269 267 265 263 262 260 260 260 260 259 257 253 250 249 248 247 245 242 237 233 230
251 252 253 252 252 251 250 249 249 248 247 244 244 247 251 250 247 244 245 250 251 252 253 255 256 256 252 246 243 243 246 250 252 252 249 245 235 225 222 235 243 246 244 248 253 256 258 259 262 266 269 269 270 272 273 275 276 277 277 277 277 276 274 273 272 270 269 267 265 263 261 260 260 260 260 258 254 250 246 245 245 244 243 239 236 232
250 250 251 253 254 253 251 249 249 249 250 248 246 246 248 247 245 242 241 246 248 249 247 252 255 256 251 241 234 232 238 245 249 250 251 251 241 225 212 228 240 246 243 245 249 253 254 254 255 258 261 264 266 268 269 272 273 275 276 276 276 276 275 274 273 271 270 268 266 264 262 261 260 260 261 260 256 251 245 242 241 241 240 239 237 234
249 249 250 254 256 255 253 251 249 249 249 248 246 243 242 242 242 241 241 243 244 244 240 243 249 254 258 244 226 217 219 232 241 246 248 251 246 230 209 222 237 246 246 245 248 251 251 252 253 255 257 261 264 267 268 270 272 273 275 276 276 277 276 275 274 273 271 269 267 266 264 262 260 260 261 262 259 255 248 242 238 236 235 235 234 233
250 250 252 255 257 258 257 254 252 250 249 248 247 246 245 243 242 241 240 239 239 240 241 240 242 247 257 255 232 207 200 216 230 242 246 250 247 237 217 221 234 244 248 248 248 248 248 248 248 250 255 260 263 265 267 269 270 272 273 275 276 277 277 277 276 275 274 272 270 267 265 263 261 260 260 262 262 259 253 245 238 233 230 230 230 230
245 246 249 252 255 257 257 254 252 250 248 247 247 247 249 245 242 239 238 236 235 236 239 242 244 246 250 253 245 215 187 204 221 237 244 247 248 242 226 226 236 244 248 248 248 247 246 247 249 252 256 260 262 264 266 268 270 271 272 274 275 276 277 278 278 278 277 275 273 270 268 265 262 260 258 261 263 263 259 249 240 232 227 225 224 225
248 242 236 241 247 251 251 249 247 245 244 244 244 245 246 244 240 237 236 235 235 236 237 241 245 247 248 253 252 237 191 190 209 232 242 247 248 242 227 226 235 243 247 248 247 244 243 243 249 254 257 259 261 264 266 267 269 270 272 273 274 275 276 277 278 278 278 277 275 274 272 269 265 262 260 261 265 269 268 257 246 235 226 221 219 219
269 263 254 249 248 250 249 244 241 240 241 242 243 243 243 242 239 236 234 233 235 236 236 240 242 244 246 250 250 240 200 186 199 222 240 244 243 238 224 222 230 240 247 249 246 241 239 240 242 247 252 257 260 262 264 266 268 270 271 272 273 274 275 276 277 277 278 277 276 275 274 272 269 266 262 263 266 270 273 265 253 240 228 221 217 215
269 268 265 261 259 258 258 255 249 244 241 240 240 240 240 238 237 237 234 232 233 234 234 237 240 243 245 248 248 238 207 193 198 214 233 245 245 237 218 215 226 238 246 248 246 240 234 237 239 243 247 253 257 260 263 265 267 269 270 272 273 273 274 275 275 276 276 276 276 276 275 274 272 269 266 264 265 269 273 270 260 246 232 223 217 213
261 263 265 262 260 258 259 259 255 250 242 238 236 236 235 234 235 235 234 231 232 234 236 240 244 247 248 249 248 241 220 206 203 210 228 245 248 241 215 211 225 236 242 244 243 239 234 237 239 243 248 253 256 259 262 264 266 268 270 271 272 273 274 274 274 275 275 275 275 275 274 273 272 271 268 266 265 267 271 273 267 255 240 227 218 213
254 257 259 258 257 255 256 256 254 250 243 237 235 235 234 234 234 234 234 232 234 236 240 245 249 250 249 246 245 241 228 213 206 208 225 242 248 246 225 218 230 239 243 240 236 234 236 239 240 241 245 251 255 258 261 263 266 268 270 271 272 273 274 274 274 274 274 274 274 273 273 272 271 270 269 267 265 265 267 270 269 263 249 232 222 215
247 249 251 251 250 249 249 250 250 248 243 238 236 235 235 236 237 238 239 236 235 235 238 241 243 244 243 240 239 237 226 211 205 207 221 241 249 249 237 227 233 242 247 240 232 229 236 242 243 242 242 250 254 256 259 262 265 267 269 271 273 273 274 274 274 274 274 274 273 273 272 270 269 268 268 266 265 263 263 267 270 267 257 241 228 219
247 246 246 248 249 250 250 251 251 250 247 244 239 234 233 234 236 237 236 232 229 227 228 233 236 238 238 236 235 232 221 208 205 208 215 235 249 251 241 229 233 242 250 245 234 230 237 244 246 245 241 247 252 255 258 261 263 266 268 270 272 273 274 275 275 275 275 274 274 273 272 270 268 267 266 265 264 262 261 264 269 270 266 252 236 223
257 255 254 254 254 255 255 256 256 256 255 252 248 243 237 231 229 230 230 226 222 220 225 231 236 239 240 237 235 231 218 209 207 208 209 225 242 248 243 230 231 239 250 248 241 236 241 247 248 246 243 243 247 252 256 259 262 264 267 269 271 272 274 274 275 275 275 275 274 273 271 269 267 265 263 262 261 260 258 259 264 268 268 262 245 227
261 260 260 260 261 261 262 262 263 263 262 260 258 255 250 241 230 227 229 224 220 220 225 229 234 239 240 239 238 232 220 214 209 205 200 214 233 243 240 230 228 233 243 249 247 243 244 248 250 249 247 244 244 248 253 256 260 262 265 267 269 271 273 274 274 275 275 275 274 273 271 269 266 263 260 259 258 256 255 255 259 264 268 266 257 235
262 262 262 263 264 265 266 267 268 268 267 266 264 262 259 252 241 231 226 219 216 219 225 228 232 236 240 243 243 239 229 221 209 197 187 205 228 239 235 228 225 226 230 248 254 251 247 247 247 248 250 248 247 247 250 253 257 260 263 265 267 269 271 273 274 274 275 275 275 274 272 269 265 261 258 255 254 253 251 250 252 256 264 265 259 240
261 262 262 262 263 264 266 267 268 268 268 267 266 265 263 259 251 239 222 212 211 216 224 228 230 233 237 242 245 244 236 224 205 189 179 201 223 234 226 224 221 217 209 228 249 256 252 244 239 237 240 246 246 245 245 247 250 254 258 262 265 267 269 271 272 273 274 275 275 274 273 271 266 262 257 253 250 249 247 245 244 245 250 258 256 244
261 261 260 260 259 259 260 260 261 262 263 264 264 262 260 258 253 243 223 209 207 213 221 225 228 229 229 233 238 240 239 220 197 183 177 199 219 228 215 219 218 212 199 201 218 245 258 249 234 225 225 235 240 242 240 239 239 241 244 252 258 263 265 267 269 272 273 274 275 275 274 272 269 264 258 252 248 245 243 241 240 238 237 237 239 238
261 259 257 256 255 253 253 252 253 255 256 257 256 254 252 250 247 241 227 212 207 210 218 224 227 228 226 227 232 238 243 222 193 182 179 197 216 224 208 213 216 213 202 200 207 223 248 254 246 227 218 225 232 237 236 234 232 231 233 238 246 255 260 263 266 269 271 273 274 275 275 273 271 266 260 253 247 243 239 237 236 234 231 225 220 216
260 258 257 257 256 255 252 251 251 252 252 252 251 249 247 245 243 239 230 216 208 208 213 220 225 228 228 230 233 238 244 235 203 189 185 194 209 219 209 211 213 214 207 207 211 219 235 248 257 260 252 237 234 234 233 230 228 225 225 230 237 246 253 256 260 264 267 270 273 274 275 274 272 268 263 256 248 242 236 234 232 230 228 224 216 207
264 264 264 264 264 262 259 257 256 255 254 253 250 247 244 241 240 237 232 221 212 208 210 215 221 225 229 231 235 239 242 236 220 205 194 195 204 214 208 209 210 209 207 209 213 218 232 239 247 255 262 253 246 238 233 232 229 224 218 222 228 236 243 245 249 255 260 264 268 271 273 273 273 271 266 259 251 243 236 232 229 228 226 224 219 209
267 266 266 265 265 265 264 262 261 259 257 254 250 245 241 238 236 235 232 225 218 212 211 213 217 221 225 229 234 238 239 231 222 214 204 200 203 209 209 211 208 205 205 208 209 213 228 233 234 237 248 253 252 246 237 233 230 226 219 219 221 225 229 231 236 243 252 256 259 261 263 265 267 268 267 262 255 247 240 233 229 226 224 223 220 217
266 266 265 266 268 270 270 269 267 264 261 256 250 244 238 234 232 230 230 227 222 217 214 215 218 220 223 227 232 236 239 230 219 214 211 204 202 204 212 213 208 203 204 208 209 211 221 229 231 232 237 245 251 251 243 235 231 228 225 221 220 221 222 221 224 232 244 250 255 256 256 254 253 255 257 259 258 255 249 240 232 227 224 222 220 218
268 271 276 280 283 284 284 280 276 271 267 263 257 248 240 234 229 226 224 223 220 218 216 216 218 221 223 226 230 235 240 233 218 209 211 205 201 203 213 215 210 204 203 208 210 213 217 225 230 232 233 237 242 245 244 238 234 231 230 224 220 218 221 220 221 225 235 247 252 255 254 252 249 248 248 254 257 259 259 252 243 234 227 223 221 218
286 289 291 292 292 292 291 287 281 275 270 268 265 260 251 244 236 230 224 220 217 216 215 214 215 219 222 226 230 234 239 234 221 209 207 204 203 205 213 217 215 210 207 208 210 210 213 220 226 230 232 234 237 239 239 237 236 234 233 225 220 216 218 218 219 222 231 245 252 256 256 252 249 248 247 248 249 252 259 269 266 252 238 229 223 218
296 294 292 292 292 291 288 283 277 273 269 268 269 268 265 260 254 248 239 229 221 217 215 214 214 217 219 224 228 232 236 233 224 212 205 204 204 207 212 216 217 216 212 211 211 211 212 217 220 223 227 233 236 236 232 232 233 233 233 233 230 226 221 217 218 221 228 240 251 258 261 254 246 241 244 240 233 229 233 257 281 279 265 245 225 214
295 292 289 287 285 281 276 274 274 276 279 283 285 284 281 277 273 268 262 250 239 230 223 219 218 218 218 222 226 230 232 231 225 216 208 206 206 208 211 215 217 217 214 212 212 213 215 218 222 224 226 229 231 230 227 228 228 227 227 232 235 233 224 218 216 217 221 228 241 251 261 255 242 230 226 225 219 212 205 204 240 279 289 273 217 195
294 290 286 282 278 273 268 272 278 285 290 293 294 290 282 277 273 269 265 257 249 240 231 225 224 224 223 223 225 227 228 229 226 220 212 208 207 208 211 214 216 216 214 213 213 214 216 219 223 226 228 230 234 237 233 230 230 231 231 230 230 228 221 216 213 213 215 222 230 238 249 254 246 233 218 215 213 207 193 172 169 179 196 100 131 147
297 293 293 294 294 293 292 290 288 287 286 284 282 278 273 266 261 258 255 249 243 235 226 220 220 223 226 226 226 225 225 226 223 220 215 209 208 208 212 214 214 213 211 213 214 215 216 218 221 223 224 226 231 237 238 234 233 233 233 231 229 230 234 223 215 207 208 218 226 233 241 248 248 237 220 211 205 198 187 177 176 176 167 141 122 122
303 304 307 308 306 301 296 290 286 283 281 280 278 275 271 266 261 257 254 249 243 236 227 220 218 220 225 228 228 226 224 223 221 219 216 211 208 209 212 214 213 211 208 211 214 216 217 218 221 222 222 222 225 231 238 236 235 235 236 230 225 224 236 231 217 206 205 212 217 222 229 236 242 243 232 215 200 188 182 186 187 186 176 155 142 138
297 299 301 301 299 295 290 286 283 281 280 278 276 275 272 266 263 260 257 254 249 244 236 230 226 227 231 233 232 229 226 220 218 218 218 213 210 209 212 213 213 210 207 210 212 214 215 220 221 222 221 221 225 230 234 233 232 231 232 227 223 220 220 213 198 194 202 211 214 217 220 225 233 242 250 241 217 191 180 180 182 181 173 156 147 144
290 292 293 295 296 295 292 290 289 288 287 283 280 277 274 268 262 257 254 255 252 247 240 231 229 232 234 233 232 230 226 219 215 216 220 218 215 213 212 212 212 212 211 213 214 214 214 218 221 221 219 222 225 229 231 231 230 229 229 226 225 224 222 210 193 187 196 206 212 215 214 213 217 227 242 246 241 217 187 176 174 173 170 159 154 153
285 287 289 290 292 292 292 294 296 295 291 286 282 277 273 267 261 256 253 253 252 247 238 228 225 228 232 231 228 224 222 218 213 211 215 217 216 213 211 211 211 212 213 216 218 219 219 220 220 219 218 222 227 229 229 227 227 229 230 227 225 226 227 218 205 195 193 200 206 210 207 201 201 209 222 226 228 228 213 183 176 174 173 166 162 162
281 283 285 287 288 290 292 295 296 294 290 286 281 276 271 265 260 256 254 252 251 248 241 232 228 228 230 228 224 219 218 218 216 211 208 211 212 212 211 211 212 212 213 216 219 222 225 225 222 218 216 222 228 229 227 223 223 225 227 224 223 222 223 219 209 199 193 197 201 201 195 191 196 206 215 215 217 222 226 211 193 183 178 173 170 168
279 280 282 284 286 288 290 292 292 291 290 287 284 279 274 270 266 263 261 255 253 251 247 238 232 230 231 229 224 219 216 218 217 214 207 206 206 208 208 209 210 212 213 217 220 223 225 225 223 219 218 223 229 231 228 221 219 220 222 221 220 220 219 218 210 201 194 197 196 193 187 189 195 202 205 207 211 215 218 219 217 210 197 189 182 179
279 280 281 283 284 285 287 288 288 287 287 287 285 283 280 276 274 272 270 262 255 251 246 240 235 232 230 228 224 220 218 219 218 215 209 204 202 202 204 204 205 207 212 216 219 223 226 226 224 222 220 223 228 233 234 225 220 218 218 219 219 219 219 217 210 202 197 196 194 192 190 193 196 196 194 198 204 210 211 214 217 219 214 205 199 195
281 281 282 283 283 283 284 284 283 282 281 281 281 281 280 278 274 271 268 261 253 246 241 237 233 230 228 225 221 217 215 216 217 217 213 204 198 196 199 200 200 202 206 211 215 219 223 227 228 225 222 222 225 229 234 230 225 219 218 219 218 218 218 216 211 204 198 195 193 192 192 196 196 195 191 195 200 205 207 211 215 217 216 212 209 208
285 284 284 283 282 281 279 278 276 275 274 275 275 276 278 278 277 273 268 264 259 252 245 239 234 231 228 224 219 215 212 212 214 216 215 204 196 194 196 196 197 199 203 208 211 213 216 223 228 228 226 223 222 223 227 227 225 223 222 219 216 215 216 215 211 205 200 196 193 191 192 194 195 195 193 194 197 201 206 210 214 215 212 210 210 212